Location: Boulinette
(44.0667°N, 7.1500°E)
Time: 14:39:10
(UTC+00:00)

Daily predictions for brighter satellites

Satellite Brightness Start Highest point End
(mag) Time Altitude Azimuth Time Altitude Azimuth Time Altitude Azimuth
Cosmos 2184 Rocket 4.5 19:35:37 10° SSE 19:41:33 43° E 19:47:27 10° NNE
Cosmos 1943 3.7 19:36:33 10° NNW 19:42:06 63° WSW 19:47:39 10° S
ERS-1 Rocket 4.0 19:39:11 10° SE 19:43:28 29° ENE 19:47:46 10° N
Cosmos 1844 Rocket 2.6 19:42:56 10° SSW 19:48:28 76° ESE 19:54:03 10° NNE
Resurs 01 Rocket 2.7 19:48:44 10° S 19:52:55 44° W 19:57:08 10° NNW
MetOp-B 4.3 19:51:13 10° SSE 19:56:27 59° ENE 20:01:44 10° N
CZ-4 R/B 3.9 19:54:27 10° SW 19:57:28 20° W 20:00:29 10° NW
Okean 2 Rocket 3.5 19:53:33 10° NNW 19:58:02 69° W 20:02:28 10° S
Cosmos 2151 Rocket 4.2 19:54:59 10° NNW 19:59:21 59° W 20:03:42 10° S
Okean O Rocket 2.3 19:56:06 10° S 20:00:18 53° W 20:04:33 10° NNW
MOS 1 4.3 19:56:53 10° SSE 20:02:32 81° ENE 20:08:13 10° NNW
IRS-1C Rocket 4.4 19:57:48 10° SE 20:02:54 53° ENE 20:08:01 10° N
Cosmos 1680 Rocket 4.2 19:59:15 10° NNW 20:04:20 53° WSW 20:09:26 10° S
PSLV R/B 4.4 20:01:26 10° S 20:04:50 48° W 20:08:20 10° NNW
Cosmos 2154 Rocket 4.2 19:59:38 10° SSE 20:05:45 54° E 20:11:55 10° NNE
Cosmos 2074 Rocket 4.0 20:01:06 10° S 20:07:17 70° E 20:13:32 10° NNE
Cosmos 1892 4.2 20:04:33 10° SW 20:07:50 35° WNW 20:11:08 10° N
Cosmos 1603 4.1 20:02:15 10° NNW 20:07:54 63° WSW 20:13:27 10° S
Cosmos 1048 Rocket 4.4 20:05:26 10° NNW 20:10:40 51° ENE 20:15:23 13° SE
Ariane Rocket 3.9 20:07:17 11° SE 20:11:37 35° ENE 20:16:11 10° N
SPOT 5 3.0 20:10:44 10° SSE 20:15:36 89° E 20:20:46 10° NNW
MOS 1 Rocket 3.7 20:11:40 12° SE 20:15:48 45° ENE 20:20:04 10° N
ISS -1.6 20:13:51 10° WNW 20:16:46 27° NNW 20:19:40 10° NE
Cosmos 921 Rocket 3.1 20:14:10 10° N 20:18:18 59° ENE 20:21:45 14° SSE
USA 215 3.4 20:15:52 12° SE 20:21:59 72° SW 20:28:34 10° NW
Cosmos 1825 4.4 20:20:16 10° SW 20:23:04 24° WNW 20:25:54 10° NNW
Cosmos 494 Rocket 4.0 20:20:29 10° NNW 20:25:46 86° WSW 20:30:30 13° SSE
NOSS 2-3 (D) 3.1 20:23:13 10° SSW 20:26:51 65° ESE 20:30:44 10° NE
IRS-1A Rocket 4.3 20:22:01 10° SSE 20:27:40 86° ENE 20:33:28 10° NNW
Okean-O 3.4 20:23:51 10° S 20:28:07 50° W 20:32:25 10° NNW
Timation 2 Rocket 3.9 20:25:06 10° SSW 20:31:25 71° ESE 20:37:31 10° NNE
Geosat 4.5 20:28:08 10° NE 20:32:49 38° ESE 20:37:27 10° S
Cosmos 1125 Rocket 3.7 20:28:26 10° S 20:33:32 51° ESE 20:38:39 10° NNE
CZ-4C R/B 3.3 20:30:44 10° N 20:34:25 71° WNW 20:37:55 10° SSW
NOSS 3-1 (C) 4.1 20:37:12 18° SE 20:38:31 20° ESE 20:42:22 10° ENE
USA 276 2.9 20:37:52 10° NW 20:40:42 43° NNE 20:42:48 16° E
Cosmos 2084 3.5 20:38:03 10° SW 20:42:13 73° NW 20:46:12 10° NE
SPOT 3 Rocket 3.7 20:38:30 18° SSE 20:42:21 61° ENE 20:47:31 10° N
NOSS 2-2 (E) 3.6 20:46:35 10° SW 20:49:50 52° NW 20:52:54 10° NNE
Landsat 4 4.0 20:49:58 27° SE 20:51:22 43° ENE 20:54:39 10° N
In-Cosmos 22 Rocket 4.3 20:45:43 10° S 20:51:29 86° W 20:57:10 10° N
Nadezhda 3 Rocket 4.1 20:48:38 10° NNW 20:54:46 74° W 21:00:16 13° S
BREEZE-M DEB (TANK) 3.7 20:52:13 10° WNW 20:55:16 76° NNE 21:03:15 12° ESE
NOSS 2-3 (E) 3.9 20:52:24 10° SW 20:55:59 55° NW 20:59:56 10° NNE
Cosmos 1544 Rocket 3.9 20:51:50 10° N 20:56:02 47° ENE 20:58:03 27° SE
Terra 2.0 20:52:39 17° S 20:56:17 71° WSW 21:01:01 10° NNW
SL-8 Rocket 4.3 20:55:32 20° SSE 20:59:48 51° E 21:05:53 10° NNE
Cosmos 1437 Rocket 2.9 21:07:19 36° SE 21:08:15 46° E 21:11:45 10° NNE
ATLAS CENTAUR R/B 1.6 21:05:05 10° NW 21:09:03 59° WSW 21:10:52 30° S
Meteor 2-1 Rocket 4.4 21:09:37 10° NNW 21:15:13 69° W 21:18:58 21° S
Cosmos 1833 Rocket 2.8 21:09:47 10° NNW 21:15:25 65° ENE 21:18:22 28° SE
Cosmos 1455 Rocket 4.4 21:12:21 10° NNW 21:16:22 36° W 21:19:45 13° SSW
Cosmos 1975 Rocket 4.1 21:13:14 10° SSW 21:17:31 46° WNW 21:21:50 10° N
Cosmos 44 3.3 21:13:31 10° SSW 21:18:48 78° ESE 21:23:54 10° NE
Cosmos 962 Rocket 4.5 21:14:54 15° S 21:20:15 85° W 21:26:27 10° N
Spot 1 4.4 21:15:43 10° NNE 21:20:49 68° ESE 21:23:35 27° S
Orbus 7S? 3.6 21:18:41 10° WNW 21:21:08 33° SW 21:21:21 32° SW
Lacrosse 5 4.0 21:17:35 10° W 21:21:58 29° NNW 21:26:22 10° NE
ERS-1 Rocket 4.2 21:18:03 13° SSW 21:22:06 35° W 21:26:42 10° NNW
Spot 2 Rocket 4.2 21:19:30 18° SSW 21:23:02 48° W 21:27:59 10° NNW
Cosmos 220 Rocket 3.8 21:22:34 10° NNW 21:26:44 80° WSW 21:28:09 40° S
Cosmos 2218 Rocket 3.9 21:23:42 25° S 21:27:20 70° E 21:33:28 10° NNE
Cosmos 864 Rocket 4.4 21:24:18 24° S 21:28:11 73° E 21:34:23 10° NNE
Cosmos 2082 Rocket 3.7 21:23:43 10° N 21:28:26 27° NE 21:31:39 16° E
Landsat 5 3.5 21:27:44 10° NNE 21:32:10 88° ESE 21:34:10 32° SSW
Cosmos 2278 Rocket 2.5 21:31:13 33° SSE 21:33:16 46° ESE 21:38:40 10° NE
Cosmos 1606 3.8 21:33:29 10° NNW 21:36:45 34° W 21:38:05 25° SW
MetOp-A 3.6 21:35:01 38° SSE 21:36:47 89° ENE 21:41:12 10° NNW
Cosmos 2298 Rocket 4.0 21:33:31 17° SSW 21:37:38 83° WNW 21:42:59 10° NNE
Cosmos 2341 Rocket 4.1 21:33:39 19° SSW 21:38:18 78° W 21:44:41 10° N
Cosmos 614 Rocket 3.9 21:37:44 10° NNW 21:42:50 77° ENE 21:44:35 41° SSE
H-2A R/B 4.2 21:44:33 18° E 21:45:14 18° ENE 21:47:55 10° NNE
CZ-2C R/B 4.1 21:41:01 10° NNE 21:45:30 48° E 21:46:20 43° SE
Cosmos 1536 Rocket 3.5 21:47:10 40° SSW 21:48:40 80° W 21:52:59 10° N
Ariane Rocket 4.4 21:47:25 17° SSW 21:50:33 30° W 21:54:59 10° NW
CZ-4C R/B 4.4 21:45:59 10° NNW 21:51:50 29° NE 21:58:43 10° E
ISS -1.3 21:51:33 10° NW 21:54:14 22° N 21:56:55 10° ENE
USA 290 3.5 21:58:14 31° NE 21:58:14 31° NE 22:00:13 10° NNE
COSMOS 2406 4.3 21:53:01 10° N 21:58:12 35° NE 22:00:48 23° E
ARIANE 5 R/B 2.8 21:58:54 49° ESE 21:59:47 60° ENE 22:04:11 10° N
ATLAS 3B R/B 3.1 22:01:26 36° SSE 22:03:38 46° ESE 22:10:45 10° NE
GENESIS II 4.4 22:00:15 10° NW 22:03:31 52° WSW 22:03:31 52° WSW
Cosmos 1269 Rocket 4.3 22:00:18 10° NNW 22:05:33 58° ENE 22:07:06 42° ESE
BREEZE-M DEB (TANK) 2.9 21:57:19 10° WNW 22:05:43 50° SW 22:06:11 48° SSW
Cosmos 1727 Rocket 4.0 22:00:02 10° N 22:06:25 78° E 22:08:48 41° SSE
Cosmos 2228 4.1 22:03:02 10° NNW 22:06:53 36° W 22:08:06 29° SW
Cosmos 1943 Rocket 2.3 22:08:20 46° SSE 22:09:40 58° ESE 22:15:12 10° NNE
Cosmos 1821 Rocket 4.0 22:09:49 36° S 22:12:36 89° W 22:18:59 10° N
USA 276 4.3 22:12:07 10° WNW 22:13:09 18° W 22:13:09 18° W
Cosmos 2058 3.7 22:19:03 39° E 22:19:03 39° E 22:22:34 10° NNE
ALOS 2 3.6 22:19:19 33° E 22:19:57 34° ENE 22:23:56 10° N
Alouette 2 Rocket 4.2 22:24:01 42° E 22:24:01 42° E 22:28:46 10° NNE
Spot 4 4.1 22:23:23 48° ESE 22:24:18 56° ENE 22:29:04 10° N
Cosmos 2084 Rocket 3.6 22:23:15 10° NNW 22:27:09 55° NE 22:27:21 54° ENE
SeaSat 1 2.9 22:26:56 39° ESE 22:28:18 52° ENE 22:33:05 10° NNW
NOSS 3-1 (C) 3.6 22:24:28 14° WSW 22:28:32 56° NW 22:34:18 10° NNE
Cosmos 1812 2.9 22:33:28 10° N 22:36:28 61° NNW 22:36:28 61° NNW
Cosmos 1238 Rocket 3.6 22:39:15 10° N 22:42:01 38° NE 22:42:01 38° NE
BREEZE-M R/B 4.3 22:38:16 10° W 22:42:46 68° N 22:59:02 10° ENE
PSLV R/B 4.1 22:40:41 10° N 22:44:37 59° WNW 22:44:51 58° W
Cosmos 1892 Rocket 3.6 22:45:05 64° WSW 22:45:31 70° W 22:49:58 10° N
Cosmos 1626 Rocket 4.3 22:48:21 38° E 22:48:21 38° E 22:52:01 10° NNE
Cosmos 1140 Rocket 3.5 22:48:52 10° NNW 22:54:00 69° ENE 22:54:48 58° ESE
Cosmos 1833 Rocket 4.4 22:54:53 10° NW 22:58:45 19° W 23:00:03 18° WSW
BREEZE-M DEB (TANK) 4.3 22:59:24 10° WNW 23:02:36 67° NNE 23:12:11 10° ESE
NOSS 3-1 (A) 3.3 23:03:57 36° WSW 23:05:54 64° NW 23:11:45 10° NNE
Cosmos-2242 3.4 23:01:54 10° N 23:05:51 51° ENE 23:05:51 51° ENE
Cosmos 2123 Rocket 4.0 22:59:55 10° N 23:06:13 79° W 23:07:51 52° S
Cosmos 2082 Rocket 2.4 23:07:22 10° NW 23:12:49 53° WSW 23:13:28 50° SW
Cosmos 1656 Rocket 3.9 23:13:38 49° ESE 23:13:52 50° ESE 23:19:11 10° NE
Cosmos 2278 Rocket 3.8 23:12:59 12° WSW 23:17:32 30° NW 23:22:29 10° N
Lacrosse 4 Rocket 3.5 23:20:40 16° E 23:20:40 16° E 23:22:04 10° ENE
Cosmos 2369 Rocket 2.7 23:19:37 41° ESE 23:19:49 41° ESE 23:25:02 10° NE
H-2A R/B 3.5 23:20:31 34° WNW 23:20:31 34° WNW 23:23:31 10° NNW
ULPM Upper Stage 2.9 23:17:10 10° NW 23:20:59 65° WNW 23:20:59 65° WNW
PSLV R/B 3.5 23:18:04 10° NNE 23:22:20 84° ENE 23:22:20 84° ENE
Iridium 4 Rocket 4.4 23:25:01 10° N 23:30:34 47° E 23:31:55 40° ESE
ISS -1.9 23:28:15 10° NW 23:30:10 29° NW 23:30:10 29° NW
Cosmos 1190 Rocket 4.5 23:26:30 10° NNW 23:31:36 52° ENE 23:32:46 43° ESE
USA 229 DEB 3.4 23:32:18 57° S 23:33:28 70° ESE 23:40:05 10° NE
USA 229 3.4 23:32:27 57° S 23:33:35 69° ESE 23:40:12 10° NE
Cosmos 2058 Rocket 4.2 23:30:54 10° NNW 23:34:37 32° W 23:34:37 32° W
Cosmos 1862 3.9 23:35:38 51° NE 23:35:38 51° NE 23:38:42 10° NNE
Cosmos 1782 3.4 23:31:35 10° NNW 23:34:35 50° NW 23:34:35 50° NW
Cosmos 1378 4.4 23:36:11 10° N 23:38:06 33° NNW 23:38:06 33° NNW
CZ-4C R/B 3.0 23:33:53 10° NW 23:41:12 86° NE 23:45:35 33° SE
COSMOS 2455 4.3 23:36:21 10° NNW 23:41:49 34° NE 23:46:54 11° ESE
Meteor 2-2 Rocket 4.2 23:36:39 10° NNW 23:42:23 75° W 23:43:24 60° SSW
COSMOS 2406 3.9 23:37:17 10° NW 23:42:30 39° WSW 23:42:49 38° WSW
Cosmos 2221 3.4 23:42:41 10° N 23:46:41 39° ENE 23:46:52 38° E
Cosmos 1943 Rocket 4.0 23:49:48 12° W 23:53:46 25° NW 23:58:23 10° N
Cosmos 1825 Rocket 3.9 23:54:06 53° E 23:54:06 53° E 23:58:08 10° NNE
ALOS 2 4.2 23:56:42 23° W 23:56:42 23° W 23:59:53 10° NW
